map of NCU home
Great Circle Mapper logo
NCU - Airport
Location
City:  Nukus, Uzbekistan
Near (Alt.):Nukys
ICAO / IATA:UTNN / NCU

Details
Type:Airport (Aerodrome, Airfield)
Use:Public/Civil, Military
Latitude:4229'18"N (42.488411)
Longitude:5937'24"E (59.623256)
Datum:WGS 1984
Elevation:246 ft (75 m)
Runways:2
Longest:9175 × 160 ft (2797 × 49 m), paved

Time
Time Zone:UTC+5
Local Time:

Weather
METAR:UTNN 240000Z VRB01MPS CAVOK 16/M05 Q1005 R33/CLRD60 NOSIG
TAF:UTNN 232250Z 2400/2424 08006G11MPS 9999 SCT050CB BKN100
TEMPO 2402/2410 14008G13MPS SHRA
TEMPO 2410/2418 28008G13MPS 3000 SHRA HZ BKN030CB BKN100 PROB40
TEMPO 2410/2414 TSRA

Related Locations
Nearby:
Farthest:IPC: 11210 mi / 18040 km
Easter Island (Isla de Pascua, Rapa Nui) [Mataveri Intl], VS, CL

Find:

   beyond  
but within

Other Information
Maps:
NOTAMs:
Links:
Sources:

  
flag of Uzbekistan   

Sectional Chart

Flight Planning
at skyvector.com

Satellite Image

Google Maps Satellite View

 

Copyright © 2004-2014 Karl L. Swartz. All rights reserved.
The Great Circle Mapper name and logo are trademarks of the Great Circle Mapper.
All other trademarks mentioned herein belong to their respective owners.
Please see credits for attibutions and further copyright information.

  Follow gcmap on Facebook Follow gcmap on Twitter

hCard Microformat

Geo Microformat